Weather History for KCEY - February, 2013

Change the Weather History Date:

Friday, February 8, 2013

  Actual Average (KPAH) Record (KPAH)
Temperature  
Mean Temperature 41 °F 37 °F  
Max Temperature 50 °F 47 °F 70 °F (2001)
Min Temperature 32 °F 28 °F -1 °F (1985)
Degree Days  
Heating Degree Days 24 28  
Month to date heating degree days 228  
Since 1 July heating degree days 2801  
Cooling Degree Days 0 0  
Month to date cooling degree days 0  
Year to date cooling degree days 0  
Moisture  
Dew Point 33 °F    
Average Humidity 79    
Maximum Humidity 100    
Minimum Humidity 65    
Precipitation  
Precipitation 0.03 in 0.14 in 1.00 in (1945)
Month to date precipitation 1.13  
Year to date precipitation 4.81  
Snow  
Snow 0.00 in 0.10 in 3.60 in (1980)
Month to date snowfall 1.0  
Since 1 July snowfall 6.3  
Snow Depth -    
Sea Level Pressure  
Sea Level Pressure 30.20 in    
Wind  
Wind Speed 13 mph (NNE)    
Max Wind Speed 18 mph    
Max Gust Speed 28 mph    
Visibility 10 miles    
Events      
T = Trace of Precipitation, MM = Missing Value Source: NWS Daily Summary

Daily Weather History Graph

Daily Weather History Graph

Search for Another Location

Airport or City:

Trip Planner

Search our weather history database for the weather conditions in past years. The results will help you decide how hot, cold, wet, or windy it might be!

Date:

Astronomy

Feb. 08, 2013 Rise Set
Actual Time 6:48 AM CST 5:27 PM CST
Civil Twilight 6:22 AM CST 5:53 PM CST
Nautical Twilight 5:51 AM CST 6:24 PM CST
Astronomical Twilight 5:21 AM CST 6:54 PM CST
Moon 5:15 AM CST (2/8) 4:00 PM CST (2/8)
Length of Visible Light 11h 31m
Length of Day
10h 38m
Waning Crescent, 3% of the Moon is Illuminated
Feb 8
Waning Crescent
Feb 10
New
Feb 17
First Quarter
Feb 25
Full
Mar 4
Last Quarter

Hourly Weather History & Observations

Time (CST) Temp. Windchill Dew Point Humidity Pressure Visibility Wind Dir Wind Speed Gust Speed Precip Events Conditions
12:15 AM 50.0 °F - 48.2 °F 94% 29.93 in 5.0 mi NNW 10.4 mph 16.1 mph 0.01 in   Overcast
12:35 AM 50.0 °F - 48.2 °F 94% 29.93 in 7.0 mi North 15.0 mph - 0.03 in   Overcast
12:55 AM 48.2 °F - 48.2 °F 100% 29.94 in 10.0 mi North 18.4 mph - 0.03 in   Overcast
1:15 AM 48.2 °F - 46.4 °F 93% 29.95 in 10.0 mi North 16.1 mph 23.0 mph N/A   Overcast
1:35 AM 46.4 °F 39.8 °F 44.6 °F 93% 29.95 in 10.0 mi North 16.1 mph 24.2 mph N/A   Overcast
1:55 AM 46.4 °F 40.4 °F 44.6 °F 93% 29.96 in 10.0 mi North 13.8 mph - N/A   Overcast
2:15 AM 46.4 °F 40.1 °F 42.8 °F 87% 29.97 in 10.0 mi North 15.0 mph 24.2 mph N/A   Overcast
2:35 AM 46.4 °F 40.7 °F 42.8 °F 87% 29.98 in 10.0 mi North 12.7 mph 19.6 mph N/A   Overcast
2:55 AM 44.6 °F 38.1 °F 41.0 °F 87% 29.98 in 10.0 mi North 13.8 mph - N/A   Overcast
3:35 AM 44.6 °F 38.1 °F 41.0 °F 87% 30.01 in 10.0 mi North 13.8 mph 19.6 mph N/A   Overcast
3:55 AM 42.8 °F 35.4 °F 39.2 °F 87% 30.02 in 10.0 mi North 15.0 mph 19.6 mph N/A   Overcast
4:15 AM 41.0 °F 34.7 °F 39.2 °F 93% 30.03 in 10.0 mi North 10.4 mph - N/A   Overcast
4:35 AM 41.0 °F 32.5 °F 39.2 °F 93% 30.04 in 10.0 mi North 17.3 mph - N/A   Overcast
4:55 AM 41.0 °F 32.5 °F 37.4 °F 87% 30.06 in 10.0 mi North 17.3 mph - N/A   Overcast
5:15 AM 41.0 °F 32.8 °F 37.4 °F 87% 30.07 in 10.0 mi North 16.1 mph - N/A   Overcast
5:35 AM 41.0 °F 33.1 °F 37.4 °F 87% 30.07 in 10.0 mi North 15.0 mph 21.9 mph N/A   Overcast
5:55 AM 41.0 °F 32.8 °F 37.4 °F 87% 30.09 in 10.0 mi North 16.1 mph 23.0 mph N/A   Overcast
6:15 AM 41.0 °F 32.5 °F 35.6 °F 81% 30.10 in 10.0 mi North 17.3 mph 23.0 mph N/A   Overcast
6:35 AM 39.2 °F 30.5 °F 35.6 °F 87% 30.11 in 10.0 mi North 16.1 mph 27.6 mph N/A   Overcast
6:55 AM 39.2 °F 30.8 °F 33.8 °F 81% 30.13 in 10.0 mi North 15.0 mph 25.3 mph N/A   Overcast
7:15 AM 39.2 °F 30.5 °F 33.8 °F 81% 30.14 in 10.0 mi North 16.1 mph 20.7 mph N/A   Overcast
7:35 AM 39.2 °F 30.8 °F 33.8 °F 81% 30.16 in 10.0 mi North 15.0 mph 20.7 mph N/A   Overcast
7:55 AM 39.2 °F 29.8 °F 33.8 °F 81% 30.17 in 10.0 mi North 18.4 mph 21.9 mph N/A   Overcast
8:15 AM 39.2 °F 30.8 °F 33.8 °F 81% 30.18 in 10.0 mi North 15.0 mph 20.7 mph N/A   Overcast
8:35 AM 39.2 °F 30.8 °F 32.0 °F 75% 30.19 in 10.0 mi NNE 15.0 mph 23.0 mph N/A   Overcast
8:55 AM 39.2 °F 30.5 °F 32.0 °F 75% 30.21 in 10.0 mi North 16.1 mph - N/A   Overcast
9:15 AM 39.2 °F 32.5 °F 32.0 °F 75% 30.21 in 10.0 mi NNW 10.4 mph - N/A   Overcast
9:35 AM 39.2 °F 30.8 °F 32.0 °F 75% 30.22 in 10.0 mi North 15.0 mph 23.0 mph N/A   Overcast
9:55 AM 37.4 °F 28.9 °F 32.0 °F 81% 30.23 in 10.0 mi North 13.8 mph 20.7 mph N/A   Overcast
10:15 AM 37.4 °F 29.8 °F 32.0 °F 81% 30.24 in 10.0 mi North 11.5 mph 20.7 mph N/A   Overcast
10:35 AM 39.2 °F 30.5 °F 32.0 °F 75% 30.25 in 8.0 mi North 16.1 mph 25.3 mph N/A   Overcast
10:55 AM 39.2 °F 29.8 °F 32.0 °F 75% 30.25 in 10.0 mi North 18.4 mph 26.5 mph N/A   Overcast
11:15 AM 39.2 °F 33.0 °F 32.0 °F 75% 30.26 in 8.0 mi North 9.2 mph 18.4 mph N/A   Overcast
11:35 AM 39.2 °F 31.2 °F 32.0 °F 75% 30.26 in 9.0 mi North 13.8 mph 23.0 mph N/A   Overcast
11:55 AM 39.2 °F 30.8 °F 32.0 °F 75% 30.26 in 9.0 mi NNW 15.0 mph - N/A   Overcast
12:15 PM 39.2 °F 32.0 °F 32.0 °F 75% 30.26 in 10.0 mi North 11.5 mph - N/A   Overcast
12:35 PM 39.2 °F 31.6 °F 32.0 °F 75% 30.26 in 9.0 mi North 12.7 mph 16.1 mph N/A   Overcast
12:55 PM 39.2 °F 32.5 °F 32.0 °F 75% 30.26 in 10.0 mi North 10.4 mph - N/A   Overcast
1:15 PM 39.2 °F 32.0 °F 32.0 °F 75% 30.25 in 10.0 mi North 11.5 mph - N/A   Overcast
1:35 PM 39.2 °F 32.0 °F 30.2 °F 70% 30.25 in 10.0 mi North 11.5 mph 17.3 mph N/A   Overcast
1:55 PM 41.0 °F 33.9 °F 32.0 °F 70% 30.25 in 10.0 mi North 12.7 mph 17.3 mph N/A   Overcast
2:15 PM 41.0 °F 34.3 °F 32.0 °F 70% 30.26 in 10.0 mi North 11.5 mph - N/A   Overcast
2:35 PM 41.0 °F 33.5 °F 32.0 °F 70% 30.26 in 10.0 mi North 13.8 mph 17.3 mph N/A   Overcast
2:55 PM 41.0 °F 33.9 °F 30.2 °F 65% 30.26 in 10.0 mi NNE 12.7 mph - N/A   Overcast
3:15 PM 41.0 °F 34.7 °F 30.2 °F 65% 30.26 in 10.0 mi NNE 10.4 mph 16.1 mph N/A   Mostly Cloudy
3:35 PM 41.0 °F 34.3 °F 32.0 °F 70% 30.27 in 10.0 mi NNE 11.5 mph 16.1 mph N/A   Overcast
3:55 PM 41.0 °F 33.1 °F 30.2 °F 65% 30.27 in 10.0 mi North 15.0 mph - N/A   Overcast
4:15 PM 41.0 °F 35.2 °F 32.0 °F 70% 30.28 in 10.0 mi North 9.2 mph - N/A   Overcast
4:35 PM 39.2 °F 33.0 °F 30.2 °F 70% 30.28 in 10.0 mi NNE 9.2 mph - N/A   Overcast
4:55 PM 39.2 °F 32.0 °F 30.2 °F 70% 30.29 in 10.0 mi North 11.5 mph - N/A   Overcast
5:15 PM 37.4 °F 30.8 °F 30.2 °F 75% 30.31 in 10.0 mi North 9.2 mph - N/A   Mostly Cloudy
5:35 PM 37.4 °F 30.8 °F 30.2 °F 75% 30.33 in 10.0 mi North 9.2 mph - N/A   Overcast
5:55 PM 37.4 °F 31.4 °F 28.4 °F 70% 30.34 in 10.0 mi North 8.1 mph - N/A   Overcast
6:15 PM 37.4 °F 29.8 °F 28.4 °F 70% 30.34 in 10.0 mi NNE 11.5 mph - N/A   Overcast
6:35 PM 37.4 °F 31.4 °F 28.4 °F 70% 30.34 in 10.0 mi NE 8.1 mph - N/A   Overcast
6:55 PM 35.6 °F 28.6 °F 28.4 °F 75% 30.34 in 10.0 mi NE 9.2 mph - N/A   Overcast
7:15 PM 35.6 °F 27.5 °F 28.4 °F 75% 30.32 in 10.0 mi NE 11.5 mph - N/A   Overcast
7:55 PM 35.6 °F 25.9 °F 28.4 °F 75% 30.31 in 10.0 mi NE 16.1 mph 19.6 mph N/A   Overcast
8:15 PM 35.6 °F 28.0 °F 28.4 °F 75% 30.31 in 10.0 mi NE 10.4 mph - N/A   Overcast
8:35 PM 33.8 °F 25.8 °F 26.6 °F 75% 30.33 in 10.0 mi NE 10.4 mph - N/A   Overcast
8:55 PM 33.8 °F 26.4 °F 28.4 °F 81% 30.33 in 10.0 mi NE 9.2 mph - N/A   Overcast
9:15 PM 33.8 °F 25.3 °F 26.6 °F 75% 30.34 in 10.0 mi NE 11.5 mph 16.1 mph N/A   Overcast
9:35 PM 33.8 °F 28.6 °F 26.6 °F 75% 30.36 in 10.0 mi ENE 5.8 mph - N/A   Overcast
9:55 PM 33.8 °F 27.0 °F 26.6 °F 75% 30.36 in 10.0 mi ENE 8.1 mph - N/A   Overcast
10:15 PM 32.0 °F 22.5 °F 26.6 °F 80% 30.35 in 10.0 mi NE 12.7 mph - N/A   Overcast
10:35 PM 32.0 °F 23.6 °F 26.6 °F 80% 30.35 in 10.0 mi ENE 10.4 mph - N/A   Overcast
10:55 PM 32.0 °F 24.2 °F 26.6 °F 80% 30.35 in 10.0 mi NE 9.2 mph - N/A   Overcast
11:15 PM 32.0 °F 25.6 °F 26.6 °F 80% 30.34 in 10.0 mi ENE 6.9 mph - N/A   Overcast
11:35 PM 32.0 °F 24.2 °F 26.6 °F 80% 30.34 in 10.0 mi ENE 9.2 mph - N/A   Overcast
11:55 PM 32.0 °F 23.0 °F 26.6 °F 80% 30.34 in 10.0 mi ENE 11.5 mph - N/A   Overcast